Temp
67 68 68 68 68 68 70 73 72 73 73 73 73 74 75 75 74 74 74 73 71 72 71 72 73 72 74 72 72 73 73 74 73 73 73 73 73 73 73 72 71 71 71 70 70 70 70 69 70 70 70 70 69 64 65 67 67 68 67 67 68 67
68 68 68 69 70 70 70 72 69 69 71 72 73 73 73 72 75 71 73 72 71 71 69 69 70 73 71 72 73 73 73 74 73 73 73 73 73 72 72 71 71 70 70 70 70 66 66 68 69 69 70 70 64 63 65 66 66 67 67 66 67 69
69 69 69 69 70 70 69 68 68 69 71 73 74 74 71 73 71 71 71 72 71 70 69 69 70 70 70 73 72 73 73 74 73 73 73 72 72 72 71 71 70 70 69 70 67 63 63 61 61 68 67 64 62 63 64 65 65 66 67 67 66 72
70 69 69 69 70 68 68 68 68 68 69 69 70 72 71 71 71 72 72 70 68 69 69 68 74 74 73 70 71 72 73 73 73 73 73 72 72 71 71 71 70 70 69 67 63 62 63 62 61 60 62 62 61 63 64 65 64 65 66 69 68 72
70 69 69 69 70 68 67 67 67 67 68 67 67 68 68 69 70 70 70 69 69 68 68 68 68 69 67 68 68 68 70 70 70 70 71 66 67 69 68 66 67 67 63 64 63 62 63 63 62 62 61 62 63 63 65 65 65 65 66 67 68 72
68 68 68 67 67 70 69 67 67 67 67 66 66 66 66 67 68 68 68 69 69 68 68 68 67 67 67 67 68 69 69 69 69 69 69 66 65 66 65 64 64 63 63 63 64 64 64 64 63 61 61 61 63 64 64 64 65 65 66 65 68 72
66 65 66 68 67 67 66 66 66 67 67 66 66 66 65 67 68 68 68 69 68 68 68 68 66 68 69 67 65 67 68 69 69 68 67 66 65 65 65 64 63 63 62 63 64 65 64 65 63 63 62 63 64 65 65 65 65 65 65 65 68 72
64 65 66 68 67 66 65 67 69 70 67 70 67 65 65 65 66 66 68 68 69 68 69 67 67 67 67 66 66 68 67 68 68 67 67 66 66 64 65 64 64 64 65 65 65 65 65 67 64 64 64 64 64 64 64 65 65 65 65 66 67 71
63 64 65 67 66 65 65 65 65 66 66 71 65 65 65 65 65 66 66 68 69 67 66 66 66 66 66 66 67 67 67 67 68 68 67 65 66 65 65 64 64 64 64 64 64 65 65 67 65 64 64 65 65 65 64 65 65 65 65 65 66 69
64 65 65 66 64 63 63 64 64 65 67 69 64 65 65 64 64 64 65 66 67 66 66 65 65 65 66 66 67 67 66 67 67 67 67 66 65 65 64 64 65 65 66 65 65 65 66 66 67 66 65 64 65 66 65 65 65 65 65 65 66 68
65 67 63 65 63 63 63 63 64 64 65 64 65 66 65 65 64 64 65 66 66 67 67 66 65 65 65 66 66 67 67 67 66 66 67 67 67 67 66 65 66 65 65 66 66 66 66 67 67 68 66 66 66 65 66 66 66 66 66 65 65 65
62 63 63 64 64 63 63 64 64 63 63 64 66 64 65 65 66 64 66 65 65 66 68 66 66 65 66 65 65 66 66 66 66 66 67 67 66 67 66 67 68 68 66 66 66 65 66 66 66 68 68 68 65 66 66 66 67 67 67 65 65 65
61 60 61 61 62 61 62 64 62 61 63 66 64 63 63 63 64 65 65 65 65 66 67 66 66 66 66 66 65 65 66 66 67 67 66 67 68 66 66 66 66 67 66 66 66 67 68 67 66 67 68 68 66 67 68 67 66 66 66 66 65 65
61 61 62 61 61 61 60 61 62 61 64 60 62 62 64 62 64 63 65 67 66 66 66 66 67 66 67 66 67 67 67 67 67 67 66 67 66 66 66 67 67 67 67 66 65 67 65 66 66 66 66 69 66 66 66 67 66 66 66 66 66 65
62 59 61 61 61 60 60 60 60 59 60 60 62 61 61 61 61 62 64 64 66 67 66 65 65 65 66 66 65 66 66 67 68 67 66 66 66 65 66 66 65 66 66 65 66 66 67 67 66 67 66 66 68 67 65 67 66 66 66 66 65 65
59 59 59 61 58 59 59 59 61 64 60 59 60 60 59 61 61 61 63 62 64 66 66 65 66 66 65 65 64 65 66 68 68 67 66 66 65 65 65 65 66 65 64 65 67 67 66 67 66 68 67 66 67 66 65 65 66 66 66 65 65 65
59 59 59 59 57 59 58 59 59 59 60 60 60 59 59 60 61 62 62 62 63 65 65 66 67 66 65 65 65 66 65 65 66 67 66 66 65 64 65 66 65 66 66 65 66 68 68 66 67 68 66 65 66 66 66 65 66 66 68 64 65 65
58 58 59 60 59 58 59 59 57 59 64 61 60 61 61 62 61 61 61 61 63 64 65 64 65 65 65 66 66 66 65 65 66 65 64 64 64 65 64 65 66 67 67 67 66 66 66 67 69 69 66 66 65 64 66 66 66 66 65 65 64 65
59 57 57 58 59 57 57 57 56 57 58 58 58 58 60 60 60 60 60 61 62 63 64 63 64 64 64 65 64 64 64 66 66 65 65 65 64 64 65 65 66 66 67 67 66 66 66 66 69 70 69 68 66 66 65 65 66 65 65 67 66 67
59 59 57 57 57 57 57 58 57 58 58 58 56 59 58 58 59 59 61 60 60 61 62 63 62 62 63 63 61 61 62 64 64 64 63 63 64 64 65 65 66 67 65 65 67 66 64 63 64 66 66 67 67 66 65 64 65 66 66 66 66 66
59 58 59 58 57 57 56 55 55 57 56 56 57 57 57 56 57 58 59 60 60 60 60 61 61 61 59 62 59 60 61 61 62 63 64 64 65 65 64 64 64 63 63 64 66 65 65 63 62 61 61 62 64 67 66 64 65 65 66 66 65 64
58 58 59 59 59 57 53 54 56 57 53 56 57 56 56 56 57 60 59 58 59 58 59 59 61 59 59 58 59 59 60 61 61 61 62 63 63 65 65 64 64 63 64 63 63 64 64 64 60 60 61 60 61 64 64 64 65 66 66 66 66 65
58 59 59 60 57 57 55 56 56 54 57 56 56 55 54 57 60 57 56 57 58 58 58 58 57 60 60 59 57 58 59 59 60 61 61 61 61 61 62 64 64 63 63 63 63 65 64 64 61 62 61 60 57 60 62 63 63 65 66 66 65 66
59 59 59 59 62 57 59 56 56 57 56 54 57 59 55 55 56 57 58 58 57 57 57 57 58 59 58 58 58 58 58 59 59 60 60 60 61 61 61 62 64 64 63 62 62 62 64 63 62 61 58 58 59 58 55 59 62 65 66 66 65 66
59 59 58 60 59 58 60 57 57 57 57 58 58 54 54 54 54 59 58 57 57 56 57 58 58 58 60 57 57 58 59 59 59 59 61 60 60 61 61 61 62 62 62 62 62 61 62 64 63 63 60 58 56 56 56 57 58 60 61 64 66 67
58 57 58 59 59 60 61 59 57 57 55 54 54 54 53 54 54 54 55 56 57 57 58 57 58 57 58 59 57 57 57 58 58 59 60 59 60 60 60 61 61 62 62 63 62 61 61 62 63 62 62 62 60 57 57 59 59 55 57 61 66 69
59 58 59 58 59 60 57 58 59 58 56 56 55 52 50 51 53 54 53 55 56 57 57 58 58 57 57 59 57 57 56 57 57 58 60 58 58 59 59 61 61 61 61 61 62 61 62 61 62 62 62 63 62 61 61 59 56 56 56 56 59 62
60 59 59 59 58 60 59 56 56 55 56 54 55 55 53 53 53 55 53 56 55 56 57 58 57 57 57 58 58 56 56 56 56 57 59 57 57 58 59 60 60 59 61 61 61 61 62 62 60 61 63 62 61 62 62 62 61 58 55 54 57 60
59 59 58 59 59 58 60 57 57 56 55 55 55 56 55 57 55 55 53 54 55 56 55 55 56 56 56 57 59 56 55 55 55 56 59 58 57 58 58 57 58 58 58 58 59 59 60 61 62 61 60 61 61 61 62 63 63 61 58 55 56 57
59 59 59 59 59 58 58 58 56 55 56 54 55 54 54 54 53 53 53 53 54 54 55 56 55 55 55 56 55 56 55 54 54 56 59 56 56 57 57 57 57 57 57 58 58 59 60 60 61 61 61 60 60 61 61 61 61 60 59 59 57 57
60 59 59 59 59 58 57 57 57 55 56 55 55 55 53 52 52 52 53 53 53 53 54 55 55 56 55 55 55 57 54 54 56 57 56 55 55 55 56 56 57 56 57 56 57 57 59 59 60 60 61 61 61 61 61 59 60 60 59 58 57 58
59 59 59 59 59 59 58 57 57 56 56 57 56 56 55 54 54 54 53 53 53 53 53 54 54 54 54 54 55 53 54 53 55 54 54 54 55 55 56 56 56 56 56 56 56 57 57 56 58 58 59 60 61 61 61 60 61 60 60 60 59 58
59 59 59 59 59 58 57 57 57 56 56 57 56 56 56 55 54 54 53 53 52 52 52 53 53 53 53 53 54 53 52 52 52 53 53 53 53 54 54 54 55 55 55 55 55 55 55 55 56 57 58 60 60 61 61 62 61 61 62 61 60 57
60 59 59 59 59 58 58 58 58 57 57 57 56 56 55 56 54 54 54 54 54 53 52 54 52 53 54 53 53 54 53 51 52 52 53 52 53 53 53 54 54 53 54 54 55 54 54 55 56 57 58 58 59 61 61 61 61 61 60 60 59 58
60 59 59 59 59 58 58 57 57 57 57 57 56 55 55 57 55 54 53 55 54 53 52 53 52 54 54 53 53 51 52 52 52 51 51 52 54 53 52 53 54 53 54 54 54 54 53 54 55 55 56 56 58 59 60 61 61 61 61 60 59 60
61 59 59 59 59 59 58 57 56 56 56 57 57 56 55 55 55 55 55 55 54 53 54 53 52 54 53 53 52 52 53 51 51 51 52 52 51 51 52 52 51 51 52 55 53 53 53 53 53 54 54 56 56 56 59 60 61 61 62 62 62 60
61 60 59 60 59 59 58 56 56 56 55 55 56 55 55 54 55 55 55 54 54 53 53 53 54 54 53 52 52 52 51 51 50 50 50 50 51 50 50 50 50 50 50 51 52 51 52 52 53 53 53 54 55 56 57 59 60 61 62 61 60 60
MSLP
1015.99 1015.95 1015.91 1015.87 1015.83 1015.83 1015.87 1015.91 1015.99 1016.03 1016.11 1016.19 1016.31 1016.35 1016.43 1016.51 1016.59 1016.63 1016.67 1016.75 1016.87 1016.95 1017.07 1017.11 1017.23 1017.39 1017.51 1017.67 1017.67 1017.79 1017.87 1017.91 1018.19 1018.35 1018.39 1018.51 1018.71 1018.87 1018.99 1019.11 1019.27 1019.35 1019.43 1019.55 1019.63 1019.63 1019.67 1019.91 1019.99 1020.07 1020.11 1020.31 1020.43 1020.39 1020.27 1020.23 1020.27 1020.39 1020.55 1020.59 1020.59 1020.55
1016.15 1016.07 1016.03 1015.95 1015.87 1015.87 1015.87 1015.99 1016.11 1016.19 1016.23 1016.31 1016.39 1016.43 1016.51 1016.55 1016.63 1016.75 1016.75 1016.79 1016.91 1017.07 1017.19 1017.27 1017.47 1017.47 1017.63 1017.75 1017.83 1017.83 1017.87 1017.99 1018.27 1018.43 1018.55 1018.63 1018.79 1018.95 1019.07 1019.15 1019.35 1019.43 1019.47 1019.55 1019.63 1019.67 1019.75 1019.91 1019.99 1020.07 1020.15 1020.31 1020.55 1020.55 1020.43 1020.43 1020.47 1020.51 1020.59 1020.63 1020.63 1020.55
1016.15 1016.15 1016.15 1016.07 1016.03 1015.99 1015.99 1016.11 1016.23 1016.31 1016.35 1016.35 1016.39 1016.43 1016.55 1016.59 1016.63 1016.75 1016.83 1016.83 1016.95 1017.15 1017.27 1017.39 1017.59 1017.71 1017.71 1017.75 1017.91 1017.91 1017.91 1018.07 1018.27 1018.47 1018.67 1018.79 1018.91 1019.07 1019.19 1019.31 1019.39 1019.51 1019.59 1019.55 1019.63 1019.75 1019.83 1019.99 1020.07 1020.07 1020.19 1020.43 1020.63 1020.67 1020.55 1020.59 1020.59 1020.55 1020.59 1020.59 1020.63 1020.51
1016.11 1016.11 1016.15 1016.15 1016.11 1016.11 1016.19 1016.27 1016.31 1016.39 1016.43 1016.47 1016.51 1016.55 1016.59 1016.63 1016.67 1016.67 1016.83 1016.95 1017.15 1017.15 1017.27 1017.47 1017.47 1017.55 1017.67 1017.83 1017.91 1017.91 1017.99 1018.15 1018.31 1018.47 1018.71 1018.91 1019.03 1019.15 1019.27 1019.35 1019.47 1019.55 1019.63 1019.71 1019.79 1019.79 1019.83 1019.95 1020.11 1020.15 1020.23 1020.43 1020.63 1020.71 1020.67 1020.67 1020.67 1020.67 1020.63 1020.59 1020.59 1020.47
1016.03 1016.15 1016.19 1016.19 1016.23 1016.31 1016.27 1016.39 1016.47 1016.47 1016.51 1016.55 1016.59 1016.63 1016.67 1016.75 1016.75 1016.83 1016.91 1017.07 1017.19 1017.31 1017.43 1017.55 1017.59 1017.71 1017.87 1017.95 1017.99 1018.19 1018.27 1018.31 1018.39 1018.59 1018.71 1019.07 1019.19 1019.23 1019.35 1019.59 1019.63 1019.71 1019.79 1019.87 1019.95 1019.91 1019.83 1019.95 1020.11 1020.19 1020.23 1020.39 1020.55 1020.71 1020.67 1020.71 1020.75 1020.71 1020.67 1020.59 1020.59 1020.51
1016.15 1016.19 1016.19 1016.23 1016.35 1016.27 1016.27 1016.51 1016.59 1016.59 1016.63 1016.67 1016.71 1016.75 1016.83 1016.83 1016.75 1016.83 1016.87 1016.95 1017.15 1017.43 1017.55 1017.67 1017.79 1017.91 1018.07 1018.15 1018.27 1018.27 1018.35 1018.39 1018.51 1018.63 1018.67 1019.07 1019.23 1019.35 1019.51 1019.63 1019.79 1019.87 1019.91 1019.91 1019.99 1019.99 1019.87 1019.91 1020.03 1020.19 1020.23 1020.31 1020.43 1020.71 1020.63 1020.75 1020.83 1020.83 1020.67 1020.63 1020.59 1020.51
1016.23 1016.31 1016.35 1016.27 1016.35 1016.43 1016.55 1016.55 1016.59 1016.59 1016.71 1016.79 1016.75 1016.87 1016.91 1016.83 1016.75 1016.75 1016.79 1016.95 1017.23 1017.47 1017.63 1017.83 1018.19 1018.03 1018.03 1018.11 1018.75 1018.43 1018.47 1018.43 1018.55 1018.71 1018.75 1018.95 1019.19 1019.31 1019.47 1019.67 1019.87 1019.95 1019.99 1020.03 1020.07 1019.99 1019.91 1019.83 1019.99 1020.15 1020.23 1020.23 1020.19 1020.63 1020.55 1020.67 1020.79 1020.79 1020.71 1020.63 1020.55 1020.47
1016.39 1016.43 1016.39 1016.35 1016.47 1016.55 1016.63 1016.63 1016.59 1016.63 1016.67 1016.67 1016.79 1016.91 1016.91 1016.87 1016.83 1016.83 1016.87 1016.99 1017.15 1017.35 1017.59 1017.91 1018.07 1018.19 1017.99 1018.11 1018.19 1018.27 1018.35 1018.47 1018.55 1018.63 1018.75 1018.87 1019.15 1019.35 1019.43 1019.59 1019.75 1019.95 1020.03 1020.07 1020.15 1020.03 1020.03 1019.87 1019.91 1020.07 1020.23 1020.11 1020.11 1020.47 1020.47 1020.51 1020.63 1020.71 1020.63 1020.51 1020.47 1020.43
1016.27 1016.35 1016.39 1016.39 1016.59 1016.67 1016.75 1016.75 1016.83 1016.83 1016.83 1016.71 1016.87 1016.91 1016.91 1016.87 1016.91 1016.95 1017.03 1017.11 1017.15 1017.35 1017.51 1017.95 1018.19 1018.27 1018.15 1018.23 1018.07 1018.15 1018.23 1018.35 1018.47 1018.55 1018.67 1018.95 1019.03 1019.27 1019.43 1019.59 1019.75 1019.91 1019.99 1020.03 1020.07 1020.11 1020.07 1019.99 1019.91 1019.99 1020.11 1020.03 1019.87 1020.19 1020.27 1020.39 1020.55 1020.67 1020.67 1020.47 1020.43 1020.39
1016.27 1016.35 1016.43 1016.47 1016.67 1016.79 1016.87 1016.91 1016.95 1016.95 1016.87 1016.87 1016.95 1016.95 1016.91 1016.95 1016.99 1017.03 1017.11 1017.15 1017.15 1017.27 1017.51 1017.95 1018.23 1018.27 1018.31 1018.31 1018.11 1018.15 1018.11 1018.07 1018.19 1018.27 1018.47 1018.87 1018.99 1019.23 1019.39 1019.51 1019.63 1019.75 1019.91 1019.99 1020.07 1019.99 1020.03 1020.03 1019.91 1019.91 1019.95 1020.03 1019.87 1020.03 1020.11 1020.27 1020.43 1020.55 1020.55 1020.51 1020.47 1020.39
1016.31 1016.35 1016.47 1016.63 1016.75 1016.87 1016.83 1016.91 1016.99 1016.95 1016.95 1016.99 1016.95 1016.91 1016.99 1016.99 1017.03 1017.07 1017.11 1017.15 1017.19 1017.27 1017.43 1017.67 1018.15 1018.39 1018.19 1018.15 1018.11 1017.99 1017.99 1017.95 1018.11 1018.23 1018.35 1018.59 1018.75 1019.03 1019.23 1019.39 1019.55 1019.71 1019.83 1019.87 1019.87 1019.83 1019.91 1019.95 1019.87 1019.87 1019.83 1019.87 1019.67 1019.83 1019.95 1020.07 1020.23 1020.39 1020.43 1020.43 1020.43 1020.43
1016.55 1016.59 1016.67 1016.79 1016.83 1016.91 1016.95 1016.91 1016.99 1017.03 1017.07 1017.07 1016.99 1016.95 1016.95 1017.03 1017.07 1017.11 1017.15 1017.23 1017.27 1017.35 1017.43 1017.87 1018.35 1018.51 1018.03 1017.79 1017.75 1017.87 1018.15 1018.15 1018.19 1018.19 1018.39 1018.55 1018.67 1018.87 1019.07 1019.15 1019.31 1019.39 1019.55 1019.59 1019.75 1019.75 1019.71 1019.79 1019.87 1019.75 1019.67 1019.67 1019.67 1019.67 1019.79 1019.87 1020.03 1020.15 1020.27 1020.35 1020.35 1020.39
1016.71 1016.79 1016.79 1016.91 1016.95 1016.99 1016.99 1016.99 1016.99 1017.03 1017.07 1017.07 1017.03 1017.03 1017.03 1017.15 1017.15 1017.11 1017.23 1017.35 1017.31 1017.35 1017.51 1017.79 1017.95 1017.99 1017.83 1017.71 1017.63 1017.79 1018.03 1018.11 1018.11 1018.19 1018.39 1018.43 1018.55 1018.79 1018.91 1019.03 1019.15 1019.11 1019.27 1019.35 1019.47 1019.59 1019.55 1019.63 1019.79 1019.63 1019.55 1019.55 1019.59 1019.63 1019.63 1019.75 1019.83 1019.91 1020.03 1020.11 1020.23 1020.27
1016.83 1016.83 1016.91 1016.99 1016.99 1017.07 1017.11 1017.11 1017.11 1017.07 1017.03 1017.07 1017.15 1017.19 1017.11 1017.15 1017.15 1017.19 1017.23 1017.35 1017.43 1017.43 1017.55 1017.67 1017.67 1017.87 1017.99 1017.95 1017.83 1017.79 1017.87 1017.99 1018.03 1018.11 1018.27 1018.35 1018.55 1018.67 1018.83 1018.95 1019.15 1019.19 1019.19 1019.39 1019.43 1019.27 1019.55 1019.67 1019.67 1019.47 1019.47 1019.43 1019.51 1019.59 1019.55 1019.75 1019.83 1019.79 1019.75 1019.87 1019.95 1020.11
1016.87 1016.91 1016.91 1016.99 1017.03 1017.11 1017.15 1017.15 1017.15 1017.11 1017.03 1016.99 1017.31 1017.39 1017.31 1017.27 1017.27 1017.27 1017.35 1017.39 1017.39 1017.47 1017.43 1017.55 1017.71 1017.83 1017.91 1018.03 1018.11 1018.07 1018.07 1017.99 1017.91 1018.11 1018.23 1018.19 1018.35 1018.55 1018.67 1018.83 1018.79 1019.07 1019.19 1019.39 1019.55 1019.23 1019.35 1019.31 1019.39 1019.51 1019.39 1019.35 1019.43 1019.47 1019.63 1019.55 1019.71 1019.83 1019.79 1019.67 1019.75 1019.83
1016.91 1016.95 1016.95 1016.99 1017.11 1017.15 1017.15 1017.15 1017.15 1017.19 1017.23 1017.23 1017.35 1017.43 1017.43 1017.39 1017.35 1017.35 1017.39 1017.43 1017.43 1017.39 1017.35 1017.39 1017.43 1017.63 1017.91 1018.11 1018.35 1018.15 1018.11 1018.03 1018.11 1018.27 1018.39 1018.43 1018.47 1018.71 1018.75 1018.91 1018.83 1018.83 1019.11 1019.19 1019.11 1018.99 1018.99 1019.11 1019.03 1018.99 1019.03 1019.11 1019.15 1019.35 1019.51 1019.55 1019.63 1019.71 1019.71 1019.75 1019.79 1019.79
1016.91 1016.99 1017.07 1017.11 1017.15 1017.19 1017.23 1017.23 1017.27 1017.31 1017.43 1017.47 1017.55 1017.55 1017.51 1017.47 1017.43 1017.47 1017.47 1017.43 1017.43 1017.35 1017.39 1017.43 1017.47 1017.55 1017.71 1017.99 1018.15 1018.15 1018.27 1018.39 1018.43 1018.27 1018.39 1018.47 1018.55 1018.59 1018.83 1018.95 1018.87 1018.51 1018.67 1019.03 1019.07 1018.87 1018.79 1018.95 1018.87 1018.79 1018.83 1018.91 1018.99 1019.07 1019.31 1019.39 1019.43 1019.47 1019.55 1019.79 1019.75 1019.71
1016.87 1016.95 1017.03 1017.15 1017.23 1017.27 1017.31 1017.43 1017.43 1017.51 1017.47 1017.59 1017.67 1017.63 1017.67 1017.59 1017.67 1017.59 1017.55 1017.59 1017.51 1017.43 1017.43 1017.47 1017.51 1017.59 1017.67 1017.71 1017.87 1018.07 1018.11 1018.27 1018.47 1018.55 1018.43 1018.63 1018.71 1018.75 1018.83 1018.95 1018.99 1018.67 1018.59 1018.83 1019.03 1018.91 1018.71 1018.79 1018.71 1018.63 1018.75 1018.79 1018.79 1018.87 1018.95 1019.07 1019.15 1019.19 1019.39 1019.55 1019.59 1019.55
1016.79 1016.99 1017.11 1017.19 1017.35 1017.47 1017.59 1017.63 1017.67 1017.79 1017.79 1017.91 1017.91 1017.87 1017.75 1017.79 1017.79 1017.75 1017.75 1017.67 1017.63 1017.63 1017.63 1017.63 1017.67 1017.75 1017.83 1017.83 1017.91 1017.99 1018.15 1018.23 1018.31 1018.47 1018.63 1018.67 1018.71 1018.75 1018.87 1018.87 1018.99 1018.79 1018.71 1018.87 1018.91 1018.79 1018.79 1018.83 1018.75 1018.55 1018.63 1018.67 1018.67 1018.67 1018.71 1018.75 1018.83 1018.99 1019.07 1019.11 1019.19 1019.19
1016.67 1016.83 1017.11 1017.31 1017.51 1017.63 1017.83 1017.95 1017.99 1018.03 1017.99 1018.07 1018.19 1018.11 1018.07 1018.03 1017.99 1017.91 1017.83 1017.71 1017.71 1017.71 1017.71 1017.75 1017.87 1017.91 1017.99 1018.07 1018.15 1018.19 1018.15 1018.23 1018.39 1018.55 1018.63 1018.71 1018.71 1018.71 1018.71 1018.83 1018.79 1018.79 1018.79 1018.67 1018.75 1018.75 1018.59 1018.83 1019.15 1018.83 1018.71 1018.59 1018.55 1018.55 1018.63 1018.67 1018.79 1018.79 1018.79 1018.83 1018.95 1019.03
1016.51 1016.75 1017.03 1017.31 1017.55 1017.71 1017.91 1018.23 1018.31 1018.19 1018.19 1018.19 1018.07 1018.15 1018.27 1018.19 1018.07 1017.99 1017.95 1017.87 1017.83 1017.79 1017.83 1017.91 1017.95 1017.95 1018.07 1018.11 1018.23 1018.23 1018.23 1018.23 1018.35 1018.39 1018.55 1018.59 1018.55 1018.63 1018.75 1018.75 1018.87 1019.03 1019.31 1018.99 1018.79 1018.59 1018.75 1018.87 1019.67 1019.71 1018.75 1018.83 1018.71 1018.51 1018.47 1018.55 1018.63 1018.67 1018.67 1018.63 1018.67 1018.91
1016.43 1016.59 1016.79 1016.99 1017.19 1017.47 1017.51 1017.71 1017.91 1018.07 1018.11 1018.19 1018.11 1018.07 1018.27 1018.27 1018.19 1018.03 1017.99 1018.03 1017.99 1017.95 1017.99 1017.99 1017.99 1018.03 1018.07 1018.15 1018.27 1018.35 1018.39 1018.35 1018.35 1018.31 1018.35 1018.43 1018.47 1018.47 1018.51 1018.67 1018.87 1019.03 1018.79 1018.91 1019.03 1018.63 1018.59 1018.75 1019.47 1019.51 1019.47 1019.23 1018.99 1018.63 1018.55 1018.67 1018.67 1018.55 1018.51 1018.55 1018.59 1018.67
1016.35 1016.31 1016.47 1016.79 1017.07 1017.27 1017.39 1017.51 1017.71 1017.95 1018.03 1018.15 1018.15 1018.11 1018.11 1018.19 1018.11 1018.11 1018.19 1018.11 1018.07 1018.03 1018.03 1018.15 1018.23 1018.15 1018.19 1018.23 1018.31 1018.43 1018.51 1018.51 1018.43 1018.31 1018.35 1018.39 1018.39 1018.35 1018.39 1018.47 1018.55 1018.71 1018.91 1018.95 1018.95 1018.63 1018.47 1018.35 1019.07 1019.27 1019.39 1019.91 1019.91 1019.79 1018.99 1018.71 1018.55 1018.51 1018.47 1018.47 1018.51 1018.55
1016.31 1016.23 1016.31 1016.59 1016.75 1016.99 1017.11 1017.47 1017.63 1017.75 1018.03 1017.95 1018.11 1018.23 1018.27 1018.35 1018.31 1018.27 1018.27 1018.23 1018.15 1018.11 1018.15 1018.23 1018.27 1018.35 1018.35 1018.35 1018.31 1018.35 1018.31 1018.35 1018.47 1018.47 1018.51 1018.51 1018.43 1018.39 1018.27 1018.35 1018.47 1018.51 1018.75 1018.83 1019.11 1019.39 1019.11 1018.71 1018.71 1019.35 1019.87 1019.95 1019.79 1019.67 1020.03 1019.51 1018.95 1018.27 1018.07 1018.35 1018.55 1018.47
1016.11 1016.23 1016.27 1016.43 1016.71 1017.11 1017.35 1017.67 1017.79 1018.07 1018.07 1018.19 1018.27 1018.35 1018.43 1018.59 1018.51 1018.39 1018.39 1018.35 1018.31 1018.27 1018.23 1018.23 1018.31 1018.35 1018.31 1018.35 1018.35 1018.31 1018.27 1018.31 1018.31 1018.39 1018.43 1018.51 1018.55 1018.59 1018.51 1018.43 1018.47 1018.63 1018.79 1018.95 1019.07 1019.35 1019.31 1019.03 1019.15 1019.19 1018.91 1019.47 1019.87 1020.07 1019.75 1019.11 1018.99 1018.63 1018.11 1018.39 1018.31 1018.31
1016.03 1016.23 1016.27 1016.35 1016.63 1016.95 1017.11 1017.43 1017.83 1018.07 1018.35 1018.47 1018.67 1018.67 1018.75 1018.71 1018.67 1018.59 1018.47 1018.39 1018.35 1018.23 1018.23 1018.35 1018.31 1018.31 1018.39 1018.43 1018.47 1018.47 1018.43 1018.43 1018.47 1018.51 1018.51 1018.63 1018.67 1018.59 1018.67 1018.71 1018.67 1018.63 1018.67 1018.71 1018.83 1019.11 1019.19 1018.95 1019.07 1019.47 1018.87 1018.31 1018.91 1020.19 1019.83 1019.43 1019.35 1019.51 1018.15 1018.11 1018.11 1018.03
1015.83 1016.11 1016.19 1016.27 1016.55 1016.75 1017.11 1017.31 1017.39 1017.67 1017.95 1018.19 1018.43 1018.51 1018.47 1018.59 1018.51 1018.51 1018.47 1018.43 1018.39 1018.35 1018.31 1018.35 1018.43 1018.43 1018.51 1018.51 1018.59 1018.63 1018.59 1018.63 1018.67 1018.71 1018.67 1018.71 1018.75 1018.91 1018.95 1018.91 1018.83 1018.67 1018.67 1018.63 1018.75 1018.95 1018.91 1018.91 1018.71 1018.63 1018.95 1019.11 1019.07 1019.11 1019.47 1019.39 1019.83 1019.43 1019.43 1018.39 1018.15 1018.19
1015.71 1015.91 1016.03 1016.19 1016.43 1016.47 1016.79 1017.23 1017.51 1017.79 1018.03 1018.27 1018.27 1018.27 1018.39 1018.47 1018.55 1018.51 1018.55 1018.51 1018.51 1018.47 1018.47 1018.43 1018.51 1018.59 1018.67 1018.63 1018.71 1018.75 1018.75 1018.75 1018.75 1018.75 1018.75 1018.87 1018.95 1018.95 1018.95 1018.95 1018.95 1018.95 1018.75 1018.67 1018.67 1018.87 1018.91 1018.87 1019.07 1018.87 1018.59 1018.83 1019.11 1019.27 1019.51 1019.43 1019.07 1018.99 1019.11 1019.35 1018.75 1018.03
1015.63 1015.79 1015.95 1015.95 1016.19 1016.47 1016.55 1016.95 1017.27 1017.71 1017.99 1018.23 1018.27 1018.27 1018.39 1018.47 1018.51 1018.47 1018.55 1018.63 1018.59 1018.63 1018.63 1018.59 1018.59 1018.67 1018.67 1018.67 1018.71 1018.79 1018.83 1018.87 1018.83 1018.87 1018.83 1018.87 1018.91 1018.99 1019.03 1019.11 1019.11 1019.11 1019.15 1019.03 1018.91 1018.95 1018.99 1018.99 1018.99 1019.11 1018.99 1018.79 1018.91 1019.07 1018.99 1018.75 1018.71 1018.67 1018.95 1019.43 1019.31 1019.11
1015.47 1015.67 1015.71 1015.83 1015.99 1016.35 1016.59 1016.95 1017.35 1017.63 1017.79 1018.19 1018.35 1018.47 1018.47 1018.59 1018.55 1018.55 1018.59 1018.71 1018.71 1018.71 1018.75 1018.79 1018.75 1018.75 1018.83 1018.83 1018.83 1018.87 1018.91 1018.91 1018.91 1018.91 1018.95 1019.03 1018.99 1018.99 1019.07 1019.15 1019.31 1019.39 1019.39 1019.35 1019.23 1019.07 1019.07 1019.03 1018.99 1018.95 1018.99 1019.03 1019.19 1019.03 1018.95 1018.87 1018.83 1018.91 1019.15 1019.39 1019.39 1018.91
1015.15 1015.43 1015.55 1015.63 1015.91 1016.23 1016.59 1016.83 1017.11 1017.43 1017.63 1017.95 1018.19 1018.31 1018.59 1018.71 1018.71 1018.67 1018.67 1018.71 1018.75 1018.79 1018.83 1018.83 1018.83 1018.83 1018.87 1018.91 1018.95 1018.95 1019.03 1019.03 1019.03 1019.03 1019.07 1019.15 1019.19 1019.23 1019.19 1019.19 1019.23 1019.31 1019.43 1019.51 1019.47 1019.39 1019.31 1019.23 1019.19 1019.19 1019.11 1019.07 1019.03 1019.03 1019.03 1019.11 1018.91 1018.91 1018.99 1019.15 1019.31 1019.07
1015.15 1015.23 1015.35 1015.43 1015.71 1016.03 1016.35 1016.63 1016.87 1017.19 1017.43 1017.63 1017.83 1018.19 1018.31 1018.47 1018.55 1018.55 1018.67 1018.71 1018.75 1018.87 1018.91 1018.91 1018.91 1018.91 1018.95 1018.99 1019.07 1019.15 1019.23 1019.27 1019.27 1019.23 1019.23 1019.23 1019.23 1019.19 1019.19 1019.19 1019.23 1019.35 1019.47 1019.55 1019.55 1019.55 1019.59 1019.55 1019.43 1019.39 1019.35 1019.23 1019.11 1018.95 1018.91 1018.91 1018.67 1018.71 1018.87 1018.83 1018.95 1018.99
1014.87 1014.99 1015.03 1015.23 1015.47 1015.79 1016.15 1016.39 1016.63 1016.95 1017.15 1017.35 1017.59 1017.79 1017.99 1018.19 1018.31 1018.43 1018.59 1018.71 1018.83 1018.87 1018.99 1019.03 1018.99 1018.95 1019.03 1019.07 1019.11 1019.19 1019.27 1019.35 1019.39 1019.39 1019.39 1019.35 1019.31 1019.27 1019.27 1019.23 1019.23 1019.27 1019.39 1019.51 1019.63 1019.67 1019.67 1019.67 1019.59 1019.55 1019.43 1019.15 1018.99 1018.95 1018.87 1018.59 1018.71 1018.75 1018.47 1018.43 1018.63 1018.91
1014.39 1014.55 1014.71 1014.99 1015.27 1015.63 1015.87 1016.03 1016.31 1016.59 1016.83 1017.11 1017.35 1017.55 1017.71 1017.83 1018.11 1018.23 1018.43 1018.51 1018.63 1018.75 1018.87 1018.87 1018.95 1018.95 1018.99 1019.11 1019.15 1019.23 1019.31 1019.39 1019.39 1019.39 1019.39 1019.43 1019.39 1019.39 1019.35 1019.35 1019.35 1019.35 1019.39 1019.39 1019.43 1019.59 1019.71 1019.67 1019.63 1019.51 1019.39 1019.23 1019.03 1018.79 1018.63 1018.51 1018.55 1018.55 1018.51 1018.67 1018.67 1018.55
1014.31 1014.55 1014.55 1014.67 1015.03 1015.35 1015.63 1015.87 1016.07 1016.27 1016.51 1016.75 1016.99 1017.31 1017.47 1017.51 1017.79 1018.07 1018.31 1018.35 1018.47 1018.63 1018.67 1018.79 1018.83 1018.83 1019.03 1019.07 1019.15 1019.23 1019.27 1019.35 1019.39 1019.43 1019.47 1019.43 1019.39 1019.31 1019.39 1019.43 1019.47 1019.51 1019.47 1019.43 1019.39 1019.39 1019.51 1019.59 1019.55 1019.51 1019.43 1019.31 1019.07 1018.83 1018.63 1018.43 1018.35 1018.35 1018.39 1018.39 1018.39 1018.31
1013.71 1014.07 1014.19 1014.39 1014.59 1014.87 1015.31 1015.63 1015.87 1016.11 1016.27 1016.51 1016.79 1017.07 1017.27 1017.43 1017.59 1017.71 1017.99 1018.11 1018.31 1018.43 1018.47 1018.59 1018.79 1018.87 1018.99 1019.03 1019.11 1019.19 1019.27 1019.39 1019.51 1019.59 1019.63 1019.67 1019.67 1019.63 1019.59 1019.55 1019.59 1019.67 1019.55 1019.59 1019.59 1019.55 1019.51 1019.47 1019.51 1019.51 1019.43 1019.27 1019.11 1018.87 1018.63 1018.39 1018.23 1018.11 1017.91 1017.83 1017.83 1017.95
1013.51 1013.79 1013.91 1013.99 1014.15 1014.51 1014.95 1015.39 1015.67 1015.87 1016.19 1016.39 1016.59 1016.75 1016.95 1017.19 1017.43 1017.63 1017.75 1017.95 1018.11 1018.31 1018.43 1018.51 1018.67 1018.83 1018.95 1019.07 1019.11 1019.15 1019.27 1019.39 1019.51 1019.67 1019.75 1019.75 1019.79 1019.79 1019.79 1019.79 1019.79 1019.71 1019.71 1019.75 1019.71 1019.75 1019.75 1019.67 1019.59 1019.51 1019.43 1019.31 1019.27 1019.03 1018.79 1018.47 1018.23 1017.99 1017.79 1017.63 1017.55 1017.55
Wind_Speed
3 4 3 3 2 3 3 6 5 7 8 8 8 10 11 10 7 8 8 8 7 5 4 4 7 6 11 8 10 13 13 14 12 11 12 12 12 11 11 11 11 9 8 6 3 2 1 2 0 1 2 5 7 4 3 4 6 6 5 4 5 4
3 3 3 3 2 2 2 4 3 3 3 4 5 7 7 4 6 3 5 6 4 4 4 4 2 6 5 6 8 12 13 14 12 11 11 11 11 10 11 11 10 8 8 7 5 1 1 2 2 2 3 6 5 3 3 4 5 5 5 4 5 6
5 4 4 3 3 2 3 3 3 3 3 5 5 7 3 5 4 4 5 4 4 4 4 4 6 5 4 11 7 11 13 14 12 11 10 10 9 9 9 9 10 8 7 8 4 2 1 0 1 3 3 3 3 2 2 4 4 5 6 5 4 10
7 6 6 5 4 3 3 3 3 3 3 2 3 4 4 3 3 5 4 4 3 4 4 4 8 10 8 4 7 10 14 14 14 12 11 7 9 8 9 9 9 9 6 3 2 2 1 1 1 2 2 1 3 1 2 4 4 4 5 6 5 13
4 4 4 4 3 3 3 3 2 2 3 2 2 2 1 1 1 3 4 4 4 3 4 3 4 3 3 4 4 4 6 6 5 6 9 4 4 4 5 3 3 4 3 3 2 2 2 2 1 1 2 1 1 2 2 4 3 4 5 4 5 11
3 3 3 3 3 3 4 4 3 3 3 2 2 2 2 2 3 4 4 4 6 5 4 4 3 4 4 2 3 4 5 5 5 5 6 5 3 4 4 3 3 3 3 3 3 3 3 3 3 2 3 2 2 4 2 5 3 4 4 5 5 12
3 3 3 3 3 3 3 3 3 3 4 2 3 3 3 2 3 4 4 4 5 5 5 4 2 0 5 5 2 2 4 5 6 5 4 5 4 3 5 4 3 3 2 2 3 3 4 4 3 3 3 3 3 5 4 6 5 4 5 6 7 13
3 4 3 4 4 4 3 3 3 4 3 3 3 4 3 3 2 3 3 4 4 4 4 5 6 0 2 1 6 4 4 5 5 5 4 4 4 3 3 4 4 3 3 3 3 4 3 4 4 4 4 5 4 6 4 6 6 5 6 7 7 10
3 4 4 4 4 2 2 3 3 3 3 4 3 3 3 2 3 2 3 3 5 4 4 3 5 4 3 4 4 5 5 6 5 5 4 3 3 4 4 4 4 4 3 4 5 4 3 4 4 4 5 5 4 3 4 5 6 5 4 5 6 8
4 5 4 5 3 3 3 4 3 3 3 4 3 3 3 2 2 2 3 2 2 3 3 2 3 4 5 3 3 4 4 5 5 5 5 4 2 2 4 3 4 5 5 4 4 6 5 6 6 5 5 5 4 4 6 6 6 6 5 5 5 6
5 5 4 5 3 3 3 3 4 3 2 4 3 3 3 3 1 1 1 0 0 2 4 2 2 3 3 4 3 5 5 4 4 4 4 4 2 1 2 4 3 2 3 4 6 6 6 7 7 6 6 5 6 5 6 7 6 5 6 6 5 5
5 4 5 4 4 4 3 3 3 3 3 3 3 4 4 4 3 1 1 0 0 1 3 3 3 4 5 5 5 5 3 3 4 4 4 3 3 2 1 1 1 2 3 3 3 4 6 6 7 7 7 6 3 5 7 7 8 7 6 5 5 6
5 4 6 5 5 3 3 2 3 3 2 2 2 2 3 3 3 3 2 1 1 1 0 3 5 6 6 5 5 5 5 5 5 5 5 5 4 1 1 1 1 1 1 1 3 4 6 6 7 8 7 6 5 5 5 7 7 7 7 7 6 6
5 6 5 5 5 4 3 2 1 1 1 3 3 3 2 2 2 2 3 3 3 2 3 3 3 5 4 2 3 5 5 5 4 5 5 5 5 4 3 2 1 1 4 1 2 5 5 7 7 6 6 5 5 5 4 6 7 7 7 7 7 7
4 5 5 6 5 4 3 3 3 3 2 1 4 1 2 3 3 2 1 2 3 3 4 5 5 4 4 4 1 1 3 4 5 4 5 6 6 5 4 2 4 6 4 3 6 7 6 8 8 7 7 6 6 5 4 6 6 6 6 7 7 7
4 5 5 5 4 4 3 3 4 4 4 4 4 3 1 1 2 2 1 2 1 2 3 2 2 2 5 4 5 5 3 4 6 4 3 1 2 3 5 4 5 5 5 4 4 3 4 6 7 8 8 7 7 5 6 5 5 6 6 5 6 6
5 6 5 4 4 3 3 4 4 4 4 5 5 4 3 3 3 3 2 3 3 3 1 3 4 3 2 5 5 5 2 3 3 3 2 3 3 3 4 4 5 6 4 4 4 4 2 4 6 7 7 7 7 7 7 6 6 6 6 7 7 7
5 5 5 5 4 4 2 3 3 3 5 7 5 5 5 5 3 2 2 3 3 4 4 4 3 2 1 3 3 3 4 3 3 1 3 1 1 2 3 3 4 5 4 5 5 4 3 3 5 6 5 6 6 7 7 7 7 6 7 7 7 8
5 5 4 4 2 2 3 3 3 4 4 4 4 4 5 5 3 3 2 2 3 4 5 5 5 4 4 3 3 2 2 3 2 2 2 2 3 3 3 3 5 6 1 3 5 2 1 3 6 5 6 6 6 7 7 7 7 7 7 7 8 8
6 6 4 3 3 3 3 3 3 2 4 3 3 5 3 3 2 3 2 3 3 4 4 5 4 4 3 3 2 2 1 1 3 4 4 4 2 2 4 6 7 5 4 5 4 3 1 5 6 1 2 3 5 6 6 7 6 7 7 7 7 7
8 6 6 4 3 3 3 3 1 2 2 1 3 4 3 1 2 3 3 3 3 4 4 4 3 3 3 3 2 1 1 2 1 4 3 3 4 5 6 7 4 1 0 6 5 3 3 5 2 6 1 2 4 4 5 6 8 7 7 7 6 6
7 7 7 7 5 4 3 6 6 6 3 2 3 3 2 1 2 1 3 4 3 4 4 4 4 3 3 3 3 3 3 4 2 1 1 2 2 2 4 5 3 3 5 5 3 3 3 5 2 4 2 2 3 4 4 4 6 6 7 6 6 7
7 8 7 6 5 4 2 4 4 4 6 2 1 0 2 1 1 3 3 3 3 4 4 4 3 2 2 3 3 3 3 2 4 2 2 3 2 2 2 3 2 4 2 4 2 1 5 5 2 1 2 2 3 3 3 3 4 5 6 6 6 7
7 7 7 6 6 4 5 4 3 6 2 2 2 2 4 3 2 3 3 1 3 4 4 4 3 3 3 2 3 3 3 4 3 3 2 2 3 4 4 3 2 2 2 5 0 1 2 5 3 3 3 4 2 2 3 6 7 6 5 6 6 8
8 7 6 7 6 6 7 6 6 5 4 5 4 3 3 2 1 1 1 1 2 3 3 2 1 3 3 3 3 3 4 4 5 4 4 5 4 3 3 3 1 1 2 3 2 3 6 8 7 4 3 2 1 1 3 2 3 7 2 4 7 8
6 5 7 8 9 8 9 9 7 7 5 3 3 3 4 4 3 3 3 1 0 1 3 2 1 2 3 3 4 3 4 4 5 5 5 4 3 5 6 5 5 3 3 2 2 3 2 6 5 6 6 2 5 1 2 2 2 4 1 3 5 7
8 6 7 8 8 8 7 7 8 8 7 8 7 3 2 3 4 3 1 2 1 0 1 2 1 2 3 3 4 4 4 4 3 4 3 5 5 4 3 3 4 5 4 2 0 2 2 2 3 4 4 5 3 4 4 1 4 1 2 2 2 5
7 7 7 8 8 8 9 6 6 5 5 6 7 6 4 4 3 3 3 2 1 0 0 0 1 2 2 3 4 4 3 3 4 3 3 3 3 3 3 3 3 3 4 3 2 2 4 0 2 2 2 4 4 3 7 7 4 5 2 1 4 3
8 8 7 9 9 6 8 8 7 7 5 4 4 5 4 3 4 3 3 1 0 0 1 2 2 3 3 4 3 4 4 4 4 3 3 4 3 3 3 4 5 6 5 5 4 2 1 3 1 3 3 4 3 6 8 6 2 0 3 3 5 4
9 8 8 9 9 7 7 7 7 6 7 5 4 3 4 5 4 3 4 2 1 1 0 1 1 3 4 3 4 4 4 4 4 4 4 5 5 5 5 4 3 3 3 4 4 5 3 3 3 3 3 3 4 4 4 3 5 5 4 5 8 5
11 8 9 10 9 9 7 7 8 7 8 8 6 7 5 4 4 3 4 3 2 2 1 1 0 1 4 4 4 4 4 4 4 5 6 5 5 4 5 5 4 3 3 3 3 3 4 3 3 4 5 4 5 6 7 6 6 5 5 5 6 9
9 10 9 10 10 10 9 8 7 8 9 9 10 8 9 8 7 7 5 4 3 1 2 1 0 1 2 3 4 3 4 4 5 5 5 4 5 5 5 4 5 5 4 4 3 3 2 3 4 3 4 5 6 6 6 7 7 5 6 7 7 7
12 11 11 10 11 10 9 9 9 9 8 9 10 9 9 8 7 8 7 5 4 4 3 2 2 3 1 2 3 4 3 3 3 3 3 4 4 5 5 5 6 5 4 5 4 4 4 3 3 3 5 5 5 5 7 6 5 6 7 8 8 8
14 12 11 10 10 10 10 9 9 9 9 9 9 9 8 9 8 7 8 7 7 7 6 6 4 4 4 3 3 3 3 3 2 3 3 3 3 3 4 4 4 5 5 4 4 4 3 4 4 4 4 5 5 6 6 6 6 6 6 5 6 9
11 10 11 12 10 11 9 8 8 8 8 8 9 8 8 8 8 7 6 7 6 5 6 5 6 4 4 4 4 3 3 3 3 3 3 4 5 5 3 4 3 4 4 4 6 6 4 4 6 6 6 6 6 6 6 6 5 6 6 8 9 8
15 14 13 12 12 12 10 8 7 8 8 8 7 7 7 6 7 8 8 8 7 6 5 5 4 4 4 4 4 4 4 4 4 3 2 1 2 3 5 5 4 4 5 4 5 6 7 6 5 6 6 6 6 6 6 6 6 6 7 7 7 6
13 11 13 13 13 11 10 8 8 8 7 7 8 9 9 8 8 7 7 7 7 6 5 5 5 4 5 4 4 4 4 4 3 3 2 2 2 3 3 3 4 4 5 4 4 5 5 6 6 6 5 6 6 7 7 7 7 6 7 6 7 7
Wind_Direction
158 159 156 161 161 145 149 135 134 142 146 146 148 162 159 165 161 161 155 146 136 139 132 148 147 143 144 145 142 138 135 129 130 130 129 132 138 144 144 139 141 144 137 129 138 200 216 106 89 50 357 36 62 29 57 123 124 133 145 158 155 162
167 180 173 169 174 162 154 131 137 134 134 141 149 153 167 161 166 180 152 141 140 123 122 112 124 148 139 147 146 139 136 133 131 130 129 134 141 146 146 144 144 143 137 135 157 221 299 25 345 360 353 42 66 40 60 120 134 141 148 158 162 170
180 186 181 183 179 185 158 133 147 132 143 160 178 154 177 170 168 170 178 163 130 129 123 118 131 145 137 154 151 144 136 133 130 131 130 135 140 144 146 144 142 137 138 147 153 191 316 37 325 323 14 49 70 63 67 128 144 151 157 163 167 170
183 185 181 185 177 173 150 138 154 141 144 156 157 163 171 180 181 184 145 106 117 135 127 144 159 154 141 132 153 145 141 138 136 132 134 137 147 148 150 150 144 144 145 150 170 151 273 297 319 344 336 68 83 76 106 144 162 160 155 169 175 169
164 164 169 180 159 161 152 137 135 153 144 138 170 173 187 243 134 123 136 134 122 122 115 105 97 107 108 127 129 125 145 133 127 127 131 126 142 147 137 129 139 136 142 156 175 207 189 254 241 291 295 261 114 114 138 149 172 166 171 168 178 170
115 141 139 143 141 160 137 138 132 137 116 98 116 92 72 116 146 149 151 145 130 117 116 121 119 124 105 117 105 142 148 129 126 133 140 139 147 138 141 143 140 145 177 182 190 221 209 202 240 254 262 257 197 133 168 154 177 186 177 165 181 175
132 117 102 105 82 84 94 101 108 126 122 113 111 109 100 113 144 158 138 137 129 142 147 135 94 202 146 146 151 149 139 127 136 145 151 146 161 164 161 147 151 167 168 209 235 232 228 200 191 214 240 239 220 132 169 158 178 186 184 175 184 180
95 126 124 109 108 104 106 102 119 109 101 132 109 101 107 131 129 134 147 137 133 145 150 134 145 186 102 157 157 151 151 137 137 145 153 153 161 180 179 160 162 171 181 202 226 247 247 232 196 193 223 226 223 136 168 167 172 190 188 179 184 187
89 118 128 117 109 105 95 95 97 108 118 129 107 110 115 119 108 88 76 97 130 143 123 116 140 158 164 216 159 149 157 149 132 149 145 178 177 186 204 175 170 184 194 208 217 232 240 250 227 196 210 229 212 143 163 160 171 188 208 185 185 190
72 101 117 109 110 106 124 118 120 129 138 120 112 120 117 95 67 81 95 81 88 95 87 111 148 154 168 199 158 146 152 152 133 128 155 168 210 205 215 193 181 184 193 208 220 226 214 229 231 222 213 210 207 159 157 164 170 185 196 193 191 203
65 75 84 103 111 118 126 122 139 155 130 134 131 114 108 110 59 57 64 34 70 114 120 158 143 146 130 199 172 186 172 145 141 141 126 143 107 226 228 204 187 192 211 209 219 218 211 218 222 218 222 221 196 157 162 168 162 183 186 188 196 204
71 75 81 83 100 126 127 135 125 124 140 157 151 155 144 136 148 206 181 97 168 173 138 146 141 146 206 191 193 192 153 163 171 168 145 132 137 165 235 222 126 158 171 195 220 232 213 207 209 214 211 225 203 171 161 166 172 178 187 191 196 203
80 79 87 92 106 122 123 118 119 121 134 135 142 157 138 135 144 171 165 134 280 219 48 136 157 176 184 191 186 181 177 196 181 173 170 166 143 151 258 283 176 218 223 241 258 220 213 202 209 208 205 212 192 202 170 165 175 178 179 185 197 200
83 89 94 98 103 102 107 111 92 75 66 125 140 143 156 167 154 163 159 179 192 172 131 165 179 172 192 156 165 180 183 182 173 177 167 167 174 179 220 245 196 291 281 223 333 270 194 200 213 206 199 197 192 199 192 164 177 185 184 185 190 193
106 96 88 93 105 117 128 118 101 66 39 97 101 98 153 154 130 105 145 198 165 169 163 182 192 175 145 152 48 301 200 169 168 164 179 186 184 188 185 201 241 239 243 226 197 231 207 198 193 194 198 192 197 197 195 202 167 185 190 192 184 193
112 105 103 111 121 125 129 118 103 91 69 59 78 82 60 66 92 75 70 64 67 194 164 170 171 143 142 147 180 223 225 154 161 164 171 177 153 185 190 201 232 227 239 225 240 235 197 202 183 186 191 187 195 182 196 205 195 180 194 184 195 193
134 132 130 123 122 124 117 116 100 88 89 79 77 60 70 107 69 59 24 26 37 51 63 151 147 116 107 168 171 176 84 332 330 150 127 169 187 211 189 192 228 238 223 230 237 264 221 225 191 194 168 182 184 187 190 197 208 194 172 186 196 198
155 152 148 150 158 149 113 66 47 62 85 78 80 84 85 91 78 64 41 52 59 55 48 47 60 75 91 112 122 146 178 194 227 181 168 96 241 239 188 231 248 255 239 239 238 224 239 234 220 198 186 175 182 182 197 196 203 204 177 190 195 194
155 164 164 163 124 67 72 57 45 44 63 79 70 60 77 77 73 54 46 39 62 72 61 59 60 55 60 71 90 114 136 183 132 136 184 208 199 218 243 222 234 250 338 284 262 269 229 251 236 201 190 194 177 192 200 206 198 199 210 197 193 198
164 171 156 131 102 89 75 79 90 41 55 56 88 95 74 108 100 79 67 46 38 57 65 64 68 69 72 75 60 43 3 118 135 139 181 225 260 255 250 237 230 227 235 266 283 216 76 34 338 294 215 228 203 193 201 204 205 207 208 215 202 189
180 163 155 159 146 143 124 89 64 153 148 229 123 112 99 108 108 123 96 73 54 56 59 49 42 55 60 58 52 54 53 3 80 130 155 213 227 215 226 249 263 158 176 253 239 206 92 96 113 286 335 331 294 237 212 196 206 216 219 215 214 194
166 165 169 172 173 156 175 168 164 183 165 187 118 105 106 115 140 120 91 91 93 76 69 54 25 17 25 50 42 35 27 355 352 1 182 202 227 245 225 219 214 280 197 217 232 181 163 110 245 196 210 280 298 276 234 206 220 223 222 226 217 214
174 170 175 170 154 167 179 144 155 166 156 147 312 126 133 176 127 75 48 99 105 88 73 63 53 28 21 12 17 50 47 50 37 23 4 330 328 309 298 302 230 220 251 214 199 168 185 170 218 60 44 39 262 220 277 274 250 243 235 228 224 222
178 180 167 169 169 169 147 149 131 131 120 111 160 89 61 40 51 64 58 36 75 83 82 75 77 81 77 60 62 44 27 48 52 56 61 10 351 330 336 346 344 283 199 276 72 316 17 248 182 173 259 199 232 168 233 243 235 246 210 221 226 232
176 179 171 160 147 143 116 104 101 82 88 74 49 46 62 30 19 118 98 57 125 121 106 88 66 96 85 68 53 42 40 30 31 29 44 44 30 348 335 321 325 313 213 271 249 164 204 224 242 284 186 111 1 292 224 244 194 260 253 236 236 234
173 173 160 157 152 150 141 138 135 128 122 115 121 129 154 163 153 149 186 257 301 126 126 105 72 57 52 61 49 50 52 41 37 30 34 49 44 34 22 19 341 312 307 201 250 232 191 235 221 224 259 188 118 204 281 300 104 251 324 240 249 238
171 174 160 156 157 143 140 146 153 159 158 164 162 214 212 192 154 182 126 128 195 337 26 90 56 78 98 84 76 62 63 59 56 46 43 44 40 32 15 29 11 12 319 317 72 293 278 258 305 266 217 251 147 176 271 143 246 6 306 310 280 245
170 171 167 156 158 156 147 147 141 143 153 153 170 179 185 178 173 149 129 135 73 327 342 227 67 30 45 81 91 67 66 59 50 36 50 57 44 17 23 27 41 39 24 350 322 319 313 326 256 307 343 277 286 253 233 252 219 187 180 240 301 319
171 172 169 159 156 162 149 156 154 149 150 172 166 168 161 144 146 130 109 57 109 334 349 39 84 83 61 85 79 86 69 56 47 21 32 25 24 35 44 40 32 28 25 7 354 295 324 293 241 271 300 284 246 239 257 255 265 214 180 199 268 262
176 177 169 163 156 161 154 146 148 164 162 170 167 148 140 152 150 137 136 181 148 155 280 72 73 80 89 88 85 74 65 53 35 25 28 16 11 19 17 29 56 65 56 34 358 4 323 296 304 289 248 255 259 297 298 270 243 239 260 243 253 257
182 173 170 164 160 165 163 160 163 171 171 169 173 157 150 162 145 132 157 201 191 225 275 245 32 75 99 84 78 78 64 43 35 34 33 28 26 16 11 9 10 31 48 49 28 17 5 341 308 306 296 269 253 245 251 256 254 238 217 228 237 250
178 179 174 167 166 169 168 172 167 168 172 173 167 167 170 172 173 167 173 185 200 121 230 259 304 97 52 82 92 70 63 55 44 34 24 17 15 13 11 20 23 23 19 21 24 33 38 9 345 309 282 281 276 270 262 252 254 234 228 236 229 253
185 184 177 170 173 172 173 174 172 175 175 171 170 172 175 173 175 169 175 174 165 184 180 177 217 176 226 132 108 91 77 73 56 44 40 28 14 17 20 16 10 9 19 23 11 7 2 340 316 303 294 284 267 260 254 252 256 259 246 235 229 250
188 186 177 172 174 173 183 180 177 176 175 169 174 175 179 173 178 176 172 175 175 175 180 187 185 194 185 169 126 135 117 109 90 58 47 40 31 25 21 15 10 8 359 351 12 19 8 351 340 319 310 304 288 276 268 259 250 244 245 260 247 230
187 187 179 178 173 180 184 183 183 181 174 174 172 177 182 177 172 172 181 173 180 176 176 191 182 189 168 157 152 135 122 94 72 60 46 21 359 356 11 15 10 5 358 355 357 357 4 3 349 342 335 322 305 295 284 276 256 249 241 234 236 248
188 185 186 178 181 182 182 181 178 178 182 174 172 170 173 178 177 173 174 173 180 181 185 172 187 163 181 160 155 142 128 125 119 120 104 48 357 1 356 5 8 17 3 358 1 357 344 349 347 339 330 324 320 308 301 294 272 261 254 239 241 246
193 188 186 185 182 180 174 172 184 180 170 172 169 171 175 177 178 182 172 175 171 181 168 161 166 166 163 167 148 139 130 139 129 120 96 80 65 38 32 22 10 1 2 353 5 357 348 345 335 335 332 330 325 319 319 315 305 290 273 257 240 233